Printer-friendly version

IAU Minor Planet Center

Minor Planet Center

MPEC 2004-K75 : 2004 KG17

The following Minor Planet Electronic Circular may be linked-to from your own Web pages, but must not otherwise be redistributed electronically.


Read MPEC 2004-K74 Read MPEC 2004-K76


M.P.E.C. 2004-K75                                Issued 2004 May 30, 21:49 UT

     The Minor Planet Electronic Circulars contain information on unusual
         minor planets and routine data on comets.  They are published
   on behalf of Commission 20 of the International Astronomical Union by the
          Minor Planet Center, Smithsonian Astrophysical Observatory,
                          Cambridge, MA 02138, U.S.A.

         Supported in part by the Steven and Michele Kirsch Foundation
             Prepared using the Tamkin Foundation Computer Network

                              MPC@CFA.HARVARD.EDU
          URL http://cfa-www.harvard.edu/iau/mpc.html  ISSN 1523-6714

                                   2004 KG17

Observations:
     K04K17G*tC2004 05 28.40941 16 59 52.71 -00 42 42.7          20   V EK075691
     K04K17G tC2004 05 28.43930 17 01 08.03 -00 45 20.6          20   V EK075691
     K04K17G tC2004 05 29.23939 17 38 17.53 -01 56 04.4          17.7 V EK075291
     K04K17G tC2004 05 29.24651 17 38 35.81 -01 56 44.1          18.3 V EK075291
     K04K17G tC2004 05 29.25798 17 39 04.85 -01 57 44.5          18.8 V EK075291
     K04K17G tC2004 05 30.27282 18 23 41.64 -03 20 55.5          16.8 V EK075291
     K04K17G tC2004 05 30.28099 18 24 00.84 -03 21 35.0          19.0 V EK075291
     K04K17G tC2004 05 30.28847 18 24 18.49 -03 22 08.6          18.3 V EK075291
     K04K17G  C2004 05 30.34353 18 26 25.44 -03 26 18.0          19.2 R EK075926
     K04K17G  C2004 05 30.34384 18 26 26.19 -03 26 18.9          19.4 R EK075926
     K04K17G  C2004 05 30.34421 18 26 27.03 -03 26 20.2          19.4 R EK075926

Observer details:
291 LPL/Spacewatch II.  Observer T. H. Bressi.  1.8-m f/2.7 reflector + CCD.
691 Steward Observatory, Kitt Peak.  Observers M. T. Read, A. B. Marais.
    Measurer M. Block.  0.9-m f/3 reflector + CCD.
926 Tenagra II Observatory.  Observers P. R. Holvorcem, M. Schwartz.  0.81-m
    f/7 Ritchey-Chretien + CCD.

Orbital elements:
2004 KG17
Epoch 2004 May 15.0 TT = JDT 2453140.5                  MPC
M 351.19102              (2000.0)            P               Q
n   0.52675539     Peri.  147.67191     -0.32482980     +0.94573884
a   1.5184368      Node   103.37176     -0.86946439     -0.29529118
e   0.3248697      Incl.    0.46987     -0.37217909     -0.13557717
P   1.87           H   27.0           G   0.15
From 11 observations 2004 May 28-30.

Ephemeris:
2004 KG17                a,e,i = 1.52, 0.32, 0                   q = 1.0251
Date    TT    R. A. (2000) Decl.     Delta      r     Elong.  Phase     V
2004 05 25    14 51.02   +03 23.2    0.017    1.027   149.1    30.4    19.5
2004 05 26    15 22.34   +02 29.5    0.015    1.027   153.4    26.2    19.1
2004 05 27    15 59.52   +01 20.9    0.014    1.026   157.0    22.7    18.9
2004 05 28    16 41.81   -00 00.8    0.013    1.026   157.9    21.8    18.7
2004 05 29    17 26.96   -01 29.0    0.013    1.025   154.8    24.9    18.8
2004 05 30    18 11.61   -02 53.6    0.013    1.025   148.7    30.9    19.0
2004 05 31    18 52.61   -04 06.2    0.014    1.025   141.7    37.8    19.3
2004 06 01    19 28.15   -05 03.4    0.016    1.025   135.2    44.1    19.7
2004 06 02    19 57.86   -05 46.3    0.017    1.025   129.8    49.5    20.1
2004 06 03    20 22.28   -06 17.6    0.019    1.025   125.3    53.8    20.4
2004 06 04    20 42.26   -06 40.5    0.021    1.026   121.8    57.2    20.7
2004 06 05    20 58.66   -06 57.4    0.023    1.026   119.1    59.8    21.0
2004 06 06    21 12.21   -07 10.1    0.025    1.026   117.0    61.8    21.3
2004 06 07    21 23.50   -07 20.0    0.027    1.027   115.4    63.2    21.5
2004 06 08    21 33.01   -07 27.9    0.030    1.028   114.2    64.3    21.7
2004 06 09    21 41.07   -07 34.4    0.032    1.028   113.3    65.0    21.9
2004 06 10    21 47.97   -07 39.9    0.034    1.029   112.7    65.5    22.1
2004 06 11    21 53.91   -07 44.7    0.037    1.030   112.3    65.8    22.2
2004 06 12    21 59.06   -07 49.0    0.039    1.031   112.1    65.9    22.4
2004 06 13    22 03.54   -07 53.1    0.042    1.032   112.1    65.8    22.5
2004 06 14    22 07.47   -07 56.9    0.044    1.033   112.1    65.6    22.6

Timothy B. Spahr             (C) Copyright 2004 MPC           M.P.E.C. 2004-K75

Read MPEC 2004-K74 Read MPEC 2004-K76


Our Web policy. Index to the CBAT/MPC/ICQ pages.


Valid HTML 4.01!